Location: Bailleul
(50.3375°N, 2.8513°E)
Time: 10:25:26
(UTC+00:00)

ARIANE 5 R/B - Pass Details

Date: 16 June 2021
Orbit: 620 x 656 km, 98.1° (Epoch: 28 July)

Event Time Altitude Azimuth Distance (km) Brightness Sun altitude
Exits shadow 21:43:40 - 192° (SSW) 2,202 4.9 -11.2°
Reaches altitude 10° 21:44:07 10° 194° (SSW) 2,028 4.8 -11.2°
Maximum altitude 21:48:14 38° 263° (W) 997 3.8 -11.6°
Drops below altitude 10° 21:52:26 10° 331° (NNW) 2,064 6.8 -11.9°
Sets 21:54:49 0° 340° (NNW) 2,985 8.1 -12.0°
